| time (UTC) | temp F | wind direction | speed MPH | gust MPH | rain 1hr in | rain 24hr in | rain mn in | humidity % | barometer mb |
| 20260905013005 | 60 | 335 | 0.0 | 0.0 | 0.00 | 0.00 | 0.01 | 83 | 1000.7 |
| 20260905011505 | 61 | 32 | 0.0 | 0.0 | 0.00 | 0.00 | 0.01 | 81 | 1000.7 |
| 20260905004505 | 61 | 74 | 2.0 | 3.0 | 0.01 | 0.00 | 0.01 | 78 | 1000.3 |
| 20260905003006 | 61 | 355 | 0.0 | 0.0 | 0.01 | 0.00 | 0.01 | 80 | 1000.7 |
| 20260905001505 | 62 | 2 | 0.0 | 0.0 | 0.01 | 0.00 | 0.01 | 81 | 1000.7 |
| 20260905000004 | 62 | 358 | 0.0 | 0.0 | 0.00 | 0.00 | 0.00 | 80 | 1000.7 |
| 20260904234505 | 63 | 15 | 0.0 | 1.0 | 0.00 | 0.00 | 0.00 | 78 | 1000.7 |
| 20260904233005 | 63 | 5 | 0.0 | 2.0 | 0.00 | 0.00 | 0.00 | 75 | 1000.7 |
| 20260904231505 | 63 | 32 | 0.0 | 2.0 | 0.00 | 0.00 | 0.00 | 75 | 1000.3 |
| 20260904224504 | 64 | 70 | 0.0 | 3.0 | 0.00 | 0.00 | 0.00 | 72 | 1000.7 |
| 20260904223005 | 64 | 11 | 0.0 | 0.0 | 0.00 | 0.00 | 0.00 | 74 | 1000.7 |
| 20260904221505 | 64 | 49 | 0.0 | 2.0 | 0.00 | 0.00 | 0.00 | 73 | 1000.7 |
| 20260904220005 | 65 | 47 | 2.0 | 2.0 | 0.00 | 0.00 | 0.00 | 71 | 1001.0 |
| 20260904214504 | 65 | 43 | 3.0 | 3.0 | 0.00 | 0.00 | 0.00 | 72 | 1001.0 |
| 20260904213004 | 65 | 53 | 2.0 | 4.0 | 0.00 | 0.00 | 0.00 | 71 | 1001.0 |
| 20260904211505 | 66 | 61 | 1.0 | 2.0 | 0.00 | 0.00 | 0.00 | 72 | 1001.0 |
| 20260904204504 | 66 | 93 | 1.0 | 2.0 | 0.00 | 0.00 | 0.00 | 71 | 1001.0 |
| 20260904203504 | 65 | 41 | 0.0 | 0.0 | 0.00 | 0.00 | 0.00 | 70 | 1000.7 |
| 20260904202004 | 66 | 49 | 2.0 | 3.0 | 0.00 | 0.00 | 0.00 | 70 | 1000.7 |
| 20260904200504 | 66 | 108 | 1.0 | 1.0 | 0.00 | 0.00 | 0.00 | 75 | 1000.7 |
| 20260904195005 | 65 | 50 | 2.0 | 2.0 | 0.00 | 0.00 | 0.00 | 69 | 1000.7 |
| 20260904194003 | 65 | 315 | 0.0 | 0.0 | 0.00 | 0.00 | 0.00 | 74 | 1000.7 |
| 20260904192505 | 66 | 46 | 0.0 | 0.0 | 0.00 | 0.00 | 0.00 | 75 | 1000.7 |
| 20260904191503 | 65 | 357 | 3.0 | 3.0 | 0.00 | 0.00 | 0.00 | 72 | 1001.0 |
| 20260904190004 | 63 | 69 | 0.0 | 0.0 | 0.00 | 0.00 | 0.00 | 81 | 1001.0 |
| 20260904185003 | 62 | 42 | 0.0 | 0.0 | 0.00 | 0.00 | 0.00 | 74 | 1001.0 |
| 20260904183504 | 62 | 333 | 0.0 | 0.0 | 0.00 | 0.00 | 0.00 | 81 | 1001.0 |
| 20260904182503 | 61 | 29 | 0.0 | 0.0 | 0.00 | 0.00 | 0.00 | 84 | 1001.0 |
| 20260904175504 | 58 | 324 | 0.0 | 0.0 | 0.00 | 0.00 | 0.00 | 94 | 1001.0 |
| 20260904174503 | 58 | 322 | 0.0 | 0.0 | 0.00 | 0.00 | 0.00 | 95 | 1001.0 |
| 20260904173004 | 57 | 315 | 0.0 | 0.0 | 0.00 | 0.00 | 0.00 | 95 | 1001.0 |
| 20260904172003 | 57 | 331 | 0.0 | 0.0 | 0.00 | 0.00 | 0.00 | 95 | 1001.0 |
| 20260904165004 | 55 | 347 | 0.0 | 0.0 | 0.00 | 0.00 | 0.00 | 95 | 1001.0 |
| 20260904163503 | 54 | 342 | 0.0 | 0.0 | 0.00 | 0.00 | 0.00 | 95 | 1001.0 |
| 20260904162103 | 52 | 348 | 0.0 | 0.0 | 0.00 | 0.00 | 0.00 | 95 | 1001.0 |
| 20260904144504 | 49 | 13 | 0.0 | 0.0 | 0.00 | 0.00 | 0.00 | 94 | 1000.7 |
| 20260904143004 | 50 | 18 | 0.0 | 0.0 | 0.00 | 0.00 | 0.00 | 94 | 1000.3 |
| 20260904141503 | 50 | 345 | 0.0 | 0.0 | 0.00 | 0.00 | 0.00 | 94 | 1000.3 |
| 20260904134504 | 50 | 328 | 0.0 | 0.0 | 0.00 | 0.00 | 0.00 | 94 | 1000.0 |
| 20260904133004 | 50 | 349 | 0.0 | 0.0 | 0.00 | 0.00 | 0.00 | 94 | 999.7 |
| 20260904131504 | 50 | 349 | 0.0 | 0.0 | 0.00 | 0.00 | 0.00 | 94 | 999.7 |
| 20260904130004 | 50 | 342 | 0.0 | 0.0 | 0.00 | 0.00 | 0.00 | 94 | 999.7 |
| 20260904120004 | 51 | 354 | 0.0 | 0.0 | 0.00 | 0.00 | 0.00 | 94 | 999.3 |
| 20260904114502 | 51 | 331 | 0.0 | 0.0 | 0.00 | 0.00 | 0.00 | 94 | 999.3 |
| 20260904113004 | 51 | 336 | 0.0 | 0.0 | 0.00 | 0.00 | 0.00 | 94 | 999.3 |
| 20260904111503 | 51 | 353 | 0.0 | 0.0 | 0.00 | 0.00 | 0.00 | 94 | 999.3 |
| 20260904104502 | 52 | 0 | 0.0 | 0.0 | 0.00 | 0.00 | 0.00 | 94 | 999.3 |
| 20260904103004 | 52 | 354 | 0.0 | 0.0 | 0.00 | 0.00 | 0.00 | 94 | 999.3 |
| 20260904101503 | 52 | 11 | 0.0 | 0.0 | 0.00 | 0.00 | 0.00 | 94 | 999.3 |
| 20260904100502 | 52 | 12 | 0.0 | 0.0 | 0.00 | 0.00 | 0.00 | 94 | 999.0 |
| 20260904095002 | 52 | 18 | 0.0 | 0.0 | 0.00 | 0.00 | 0.00 | 93 | 999.0 |
| 20260904093503 | 52 | 18 | 0.0 | 0.0 | 0.00 | 0.00 | 0.00 | 93 | 999.0 |
| 20260904092502 | 53 | 28 | 0.0 | 0.0 | 0.00 | 0.00 | 0.00 | 93 | 999.0 |
| 20260904091003 | 53 | 15 | 0.0 | 0.0 | 0.00 | 0.00 | 0.00 | 93 | 999.0 |
| 20260904085503 | 53 | 14 | 0.0 | 0.0 | 0.00 | 0.00 | 0.00 | 93 | 999.0 |
| 20260904082503 | 54 | 17 | 0.0 | 0.0 | 0.00 | 0.00 | 0.00 | 93 | 999.3 |
| 20260904081004 | 54 | 7 | 0.0 | 0.0 | 0.00 | 0.00 | 0.00 | 93 | 999.0 |
| 20260904075503 | 54 | 3 | 0.0 | 0.0 | 0.00 | 0.00 | 0.00 | 93 | 999.0 |
| 20260904074004 | 55 | 358 | 0.0 | 0.0 | 0.00 | 0.00 | 0.00 | 92 | 999.0 |
| 20260904072504 | 55 | 9 | 0.0 | 0.0 | 0.00 | 0.00 | 0.00 | 92 | 999.0 |
| 20260904071003 | 55 | 359 | 0.0 | 0.0 | 0.00 | 0.00 | 0.00 | 92 | 999.0 |
| 20260904064005 | 56 | 17 | 0.0 | 0.0 | 0.00 | 0.00 | 0.00 | 92 | 999.0 |
| 20260904062504 | 56 | 359 | 0.0 | 0.0 | 0.00 | 0.00 | 0.00 | 92 | 999.0 |
| 20260904061003 | 57 | 342 | 0.0 | 0.0 | 0.00 | 0.00 | 0.00 | 92 | 998.6 |
| 20260904055503 | 57 | 5 | 0.0 | 0.0 | 0.00 | 0.00 | 0.00 | 92 | 999.0 |
| 20260904054502 | 57 | 358 | 0.0 | 0.0 | 0.00 | 0.00 | 0.00 | 92 | 999.0 |
| 20260904053004 | 58 | 332 | 0.0 | 0.0 | 0.00 | 0.00 | 0.00 | 92 | 999.0 |
| 20260904051504 | 58 | 342 | 0.0 | 0.0 | 0.00 | 0.00 | 0.00 | 92 | 999.3 |
| 20260904050005 | 58 | 345 | 0.0 | 0.0 | 0.00 | 0.00 | 0.00 | 92 | 999.3 |
| 20260904045004 | 58 | 330 | 0.0 | 0.0 | 0.00 | 0.00 | 0.00 | 92 | 999.3 |
| 20260904044002 | 58 | 334 | 0.0 | 0.0 | 0.00 | 0.00 | 0.00 | 92 | 999.3 |
| 20260904042502 | 59 | 350 | 0.0 | 0.0 | 0.00 | 0.00 | 0.00 | 92 | 999.0 |
| 20260904041004 | 59 | 339 | 0.0 | 0.0 | 0.00 | 0.00 | 0.00 | 92 | 999.0 |
| 20260904035503 | 59 | 297 | 0.0 | 0.0 | 0.00 | 0.00 | 0.00 | 92 | 999.0 |
| 20260904034003 | 59 | 345 | 0.0 | 0.0 | 0.00 | 0.00 | 0.00 | 92 | 999.0 |
| 20260904032503 | 59 | 324 | 0.0 | 0.0 | 0.00 | 0.00 | 0.00 | 92 | 998.6 |
| 20260904025504 | 59 | 4 | 0.0 | 0.0 | 0.00 | 0.00 | 0.00 | 92 | 998.6 |
| 20260904024005 | 59 | 348 | 0.0 | 0.0 | 0.00 | 0.00 | 0.00 | 91 | 998.6 |
| 20260904022605 | 60 | 353 | 0.0 | 0.0 | 0.00 | 0.00 | 0.00 | 91 | 998.6 |
| 20260904021503 | 60 | 324 | 0.0 | 0.0 | 0.00 | 0.00 | 0.00 | 91 | 999.0 |
| 20260904020006 | 60 | 3 | 0.0 | 0.0 | 0.00 | 0.00 | 0.00 | 91 | 999.0 |
| 20260904015003 | 60 | 322 | 0.0 | 0.0 | 0.00 | 0.00 | 0.00 | 91 | 999.0 |
| 20260904014002 | 60 | 332 | 0.0 | 0.0 | 0.00 | 0.00 | 0.00 | 91 | 999.0 |